Regional Weather Roundup
Issued by NWS

Home | Current Version | Previous Version | Graphics & Text | Print | Product List | Glossary On
Versions: 1 2 3 4 5 6 7 8 9 10 11 12 13 14 15 16 17 18 19 20 21 22 23 24 25 26 27 28 29 30 31 32 33 34 35 36 37 38 39 40 41 42 43 44 45 46 47 48 49 50
000
ASUS43 KFSD 180902
RWRSD

WEATHER ROUNDUP FOR SOUTH DAKOTA
NATIONAL WEATHER SERVICE SIOUX FALLS SD
300 AM CST SAT NOV 18 2017

NOTE: "FAIR" INDICATES FEW OR NO CLOUDS BELOW 12,000 FEET WITH NO
SIGNIFICANT WEATHER AND/OR OBSTRUCTIONS TO VISIBILITY.


SDZ001>005-009-010-012>017-181000-
NORTHWEST AND NORTH CENTRAL SOUTH DAKOTA

CITY           SKY/WX    TMP DP  RH WIND       PRES   REMARKS
BUFFALO          N/A     29  25  85 W16       29.87R WCI  17
FAITH            N/A     30  26  85 NW15      29.91R WCI  19
MOBRIDGE       CLEAR     28  25  88 NW9       29.84R WCI  19
$$

SDZ012>016-024>037-041>051-057-063-072>074-181000-
SOUTHWEST AND SOUTH CENTRAL SOUTH DAKOTA

CITY           SKY/WX    TMP DP  RH WIND       PRES   REMARKS
RAPID CTY ARPT CLEAR     31  23  72 NW9       29.96R WCI  23
PIERRE         PTCLDY    38  36  92 W10       29.86R
CUSTER         CLEAR     27  17  66 NW9       29.94R WCI  18
ELLSWORTH AFB  CLEAR     35  25  67 NW15      29.95R WCI  25
PHILIP         CLEAR     34  33  96 W12       29.92R WCI  25
PINE RIDGE     CLEAR     28  28 100 CALM      29.97R
SPEARFISH      CLOUDY    34  21  60 W16G22    29.98R WCI  23
WINNER         FAIR      38  35  89 W9        29.87R
$$

SDZ004>011-016>023-039-040-181000-
NORTHEAST SOUTH DAKOTA

CITY           SKY/WX    TMP DP  RH WIND       PRES   REMARKS
ABERDEEN       CLOUDY    23  19  85 CALM      29.86R
WATERTOWN      CLOUDY    27  22  81 N9        29.79R WCI  18
BROOKINGS      CLOUDY    30  25  81 N7        29.79R WCI  23
SISSETON         N/A     24  18  77 NW10      29.83R WCI  14
$$

SDZ017-020-022-023-036>040-048>070-181000-
SOUTHEAST SOUTH DAKOTA

CITY           SKY/WX    TMP DP  RH WIND       PRES   REMARKS
SIOUX FALLS    CLOUDY    35  27  72 N13       29.77R WCI  26
HURON          CLOUDY    29  21  72 NW8       29.84R WCI  21
CHAMBERLAIN    CLOUDY    37  32  83 NW7       29.85R
MITCHELL       CLOUDY    33  24  69 N12       29.83R WCI  24
YANKTON        CLOUDY    36  31  82 NW14      29.79R
$$

ABBREVIATIONS USED IN REMARKS
   TC - TEMPERATURE IN CELSIUS
  WCI - WIND CHILL INDEX
   HX - HEAT INDEX
  VSB - VISIBILITY




USA.gov is the U.S. government's official web portal to all federal, state and local government web resources and services.